GW5905 Weather Reports


time (UTC)temp
C
wind
direction
speed
KPH
gust
KPH
rain 1hr
cm
rain 24hr
cm
rain mn
cm
humidity
%
barometer
mb
20260504150548 18 281 11.3 12.9 0.00 0.00 0.00 41 1017.1
20260504140534 16 209 9.7 11.3 0.00 0.00 0.00 43 1017.6
20260504130527 15 159 1.6 3.2 0.00 0.00 0.00 53 1017.8
20260504110502 6 173 0.0 0.0 0.00 0.00 0.00 82 1018.6
20260504100448 1 184 0.0 0.0 0.00 0.00 0.00 94 1018.2
20260504081423 4 179 0.0 0.0 0.00 0.00 0.00 75 1018.2
20260504080422 5 180 0.0 0.0 0.00 0.00 0.00 74 1018.3
20260504070402 6 169 0.0 0.0 0.00 0.00 0.00 68 1018.0
20260504050328 5 179 0.0 0.0 0.00 0.00 0.00 69 1018.3
20260504045326 5 180 0.0 0.0 0.00 0.00 0.00 69 1018.4
20260504044320 6 180 0.0 0.0 0.00 0.00 0.00 68 1018.4
20260504043320 6 181 0.0 0.0 0.00 0.00 0.00 68 1018.6
20260504042320 6 188 0.0 0.0 0.00 0.00 0.00 70 1018.7
20260504041318 6 186 0.0 0.0 0.00 0.00 0.00 70 1018.4
20260504040318 6 193 0.0 0.0 0.00 0.00 0.00 71 1018.5
20260504035317 5 183 0.0 0.0 0.00 0.00 0.00 72 1018.5
20260504034312 5 186 0.0 0.0 0.00 0.00 0.00 73 1018.5
20260504033307 4 178 0.0 0.0 0.00 0.00 0.00 74 1018.2
20260504032306 4 190 0.0 0.0 0.00 0.00 0.00 75 1018.1
20260504031306 5 185 0.0 0.0 0.00 0.00 0.00 73 1018.0
20260504030306 5 186 0.0 0.0 0.00 0.00 0.00 73 1018.1
20260504025305 6 188 0.0 0.0 0.00 0.00 0.00 62 1018.0
20260504024304 5 184 0.0 0.0 0.00 0.00 0.00 69 1018.1
20260504023303 6 172 0.0 0.0 0.00 0.00 0.00 65 1018.1
20260504022301 6 185 0.0 0.0 0.00 0.00 0.00 63 1018.0
20260504021301 7 190 0.0 0.0 0.00 0.00 0.00 62 1018.0
20260504020301 7 186 0.0 0.0 0.00 0.00 0.00 56 1017.9
20260504015259 7 209 0.0 1.6 0.00 0.00 0.00 55 1017.8
20260504014257 7 165 0.0 0.0 0.00 0.00 0.00 54 1017.6
20260504013253 7 178 0.0 0.0 0.00 0.00 0.00 55 1017.6
20260504012253 7 173 1.6 1.6 0.00 0.00 0.00 52 1017.7
20260504011252 7 181 0.0 1.6 0.00 0.00 0.00 49 1017.6
20260504010249 7 186 0.0 0.0 0.00 0.00 0.00 47 1017.4
20260504005249 8 186 0.0 0.0 0.00 0.00 0.00 47 1017.2
20260504004244 8 185 0.0 0.0 0.00 0.00 0.00 46 1016.9
20260504003243 8 180 0.0 0.0 0.00 0.00 0.00 45 1016.7
20260504002242 10 186 0.0 0.0 0.00 0.00 0.00 45 1016.6
20260504001242 10 190 0.0 0.0 0.00 0.00 0.00 39 1016.5
20260504000242 11 261 4.8 4.8 0.00 0.00 0.00 36 1016.3
20260503235237 11 213 3.2 4.8 0.00 0.00 0.00 38 1016.2
20260503234233 11 202 3.2 3.2 0.00 0.00 0.00 38 1016.2
20260503233231 11 283 4.8 4.8 0.00 0.00 0.00 37 1016.1
20260503232231 12 218 4.8 4.8 0.00 0.00 0.00 37 1016.1
20260503231226 11 288 6.4 9.7 0.00 0.00 0.00 38 1016.0
20260503230225 12 264 11.3 12.9 0.00 0.00 0.00 42 1015.9
20260503225223 12 210 6.4 8.0 0.00 0.00 0.00 39 1015.9
20260503224218 12 208 4.8 4.8 0.00 0.00 0.00 40 1016.1
20260503223213 12 290 8.0 11.3 0.00 0.00 0.00 40 1016.0
20260503222213 12 173 4.8 4.8 0.00 0.00 0.00 40 1016.0
20260503221208 12 275 9.7 12.9 0.00 0.00 0.00 40 1015.9
20260503220207 12 288 16.1 17.7 0.00 0.00 0.00 40 1015.9
20260503215207 12 281 4.8 8.0 0.00 0.00 0.00 40 1016.0
20260503214207 12 276 6.4 9.7 0.00 0.00 0.00 42 1016.0
20260503213202 12 232 8.0 11.3 0.00 0.00 0.00 43 1016.1
20260503212202 12 258 9.7 11.3 0.00 0.00 0.00 41 1016.0
20260503211201 11 243 4.8 8.0 0.00 0.00 0.00 44 1015.9
20260503210200 11 265 8.0 9.7 0.00 0.00 0.00 44 1016.0
20260503205158 11 233 9.7 12.9 0.00 0.00 0.00 42 1015.7
20260503204158 11 294 11.3 16.1 0.00 0.00 0.00 42 1015.7
20260503203153 12 248 14.5 17.7 0.00 0.00 0.00 42 1015.8
20260503202153 11 94 6.4 9.7 0.00 0.00 0.00 44 1015.9
20260503201148 11 222 14.5 17.7 0.00 0.00 0.00 43 1015.8
20260503200147 11 238 9.7 11.3 0.00 0.00 0.00 43 1015.6
20260503195147 11 264 9.7 12.9 0.00 0.00 0.00 44 1015.7
20260503194145 11 246 8.0 9.7 0.00 0.00 0.00 43 1015.8
20260503193143 11 262 4.8 8.0 0.00 0.00 0.00 46 1015.8
20260503192140 11 234 11.3 14.5 0.00 0.00 0.00 44 1015.7
20260503191140 11 231 4.8 8.0 0.00 0.00 0.00 45 1015.8
20260503190140 11 237 8.0 9.7 0.00 0.00 0.00 46 1015.7
20260503185138 10 274 8.0 9.7 0.00 0.00 0.00 45 1015.7
20260503184135 11 234 6.4 9.7 0.00 0.00 0.00 45 1015.8
20260503183135 11 214 6.4 8.0 0.00 0.00 0.00 47 1015.7
20260503182132 10 227 4.8 4.8 0.00 0.00 0.00 47 1015.7
20260503181131 10 5 6.4 9.7 0.00 0.00 0.00 47 1015.9
20260503180126 10 273 6.4 9.7 0.00 0.00 0.00 48 1016.0
20260503175125 11 201 8.0 12.9 0.00 0.00 0.00 49 1016.0
20260503174125 11 185 6.4 9.7 0.00 0.00 0.00 47 1015.7
20260503173123 12 270 11.3 16.1 0.00 0.00 0.00 46 1015.9
20260503172123 11 207 17.7 25.7 0.00 0.00 0.00 45 1015.7
20260503171123 11 220 9.7 11.3 0.00 0.00 0.00 45 1015.7
20260503170122 11 295 12.9 14.5 0.00 0.00 0.00 43 1015.4